Tracking 34142 objects as of 18-May-2026
HD Live streaming from Space Station
objects crossing your sky now

CENTISPACE-2 S3

Track CENTISPACE-2 S3 now!
10-day predictions


NORAD ID: 68352
Int'l Code: 2026-060C
Perigee: 647.5 km
Apogee: 664.6 km
Inclination: 55.0 °
Period: 97.7 minutes
Semi major axis: 7027 km
RCS: Unknown
Launch date: March 22, 2026
Source: People's Republic of China (PRC)
Launch site: Yellow Sea Launch Area, China (YSLA)
Your satellite tracking list
Your tracking list is empty




NASA's NSSDC Master Catalog

Two Line Element Set (TLE):
1 68352U 26060C   26137.84692185 -.00000132  00000-0  11464-4 0  9997
2 68352  54.9787 159.7377 0012215  66.4642 293.7638 14.73821555  8292
Source of the keplerian elements: AFSPC